Te Punaha Atea-1

operational
NORAD ID: 64533 Int'l Des: 2025-135 Owner: TPA Country: NZ
LEOCIRCULARRETROGRADESSO

Te Punaha Atea-1について

説明を読み込み中...

リアルタイム位置

3D地球を読み込み中...

次回通過

高度履歴

Altitude vs Time

uPlot chart will show altitude changes over time

軌道要素

1 64533U 25135F 25341.05164978 .00007574 00000-0 35941-3 0 9990
2 64533 97.4559 92.9795 0006448 131.1019 229.0774 15.19529082 25652
Epoch: Dec 7, 2025 • Age: 19 hours

現在のステータス

高度 515.2 km
速度 7.61 km/s
衛星直下点 55.70°N, 59.14°E
打ち上げ日 Jun 23, 2025
運用期間 0.4 years
タイプ other

技術仕様

分類 Payload
質量 5.00 kg
乾燥質量 5.00 kg
総質量 5.00 kg
長さ 0.30 m
直径 0.10 m
スパン 3.00 m
形状 Box
製造者 NANAV/TPA
バスタイプ Cubesat 3U
フェーズステータス In Orbit
所有者/国 TPA/NZ

大規模コンステレーション

Loading constellations...